Miscellaneous Local Product
Issued by NWS Hastings, NE

Home | Current Version | Previous Version | Graphics & Text | Print | Product List | Glossary On
Versions: 1 2 3 4 5 6 7 8 9 10 11 12 13 14 15 16 17 18 19 20 21 22 23 24 25 26 27 28 29 30 31 32 33 34 35 36 37 38 39 40 41 42 43 44 45 46 47 48 49 50
000
AXUS43 KGID 201502
MISGRI

GID CWA HOURLY WEATHER ROUNDUP
NATIONAL WEATHER SERVICE HASTINGS NE
900 AM CST SAT JAN 20 2018

NOTE: "FAIR" INDICATES FEW OR NO CLOUDS BELOW 12,000 FEET WITH NO
SIGNIFICANT WEATHER AND/OR OBSTRUCTIONS TO VISIBILITY.

...SOUTH CENTRAL NEBRASKA...

CITY           SKY/WX    TMP DP  RH WIND       PRES   REMARKS
GRAND ISLAND   CLOUDY    30  29  96 NE7       29.82R WCI  23
KEARNEY        CLOUDY    32  29  88 NE12      29.80S WCI  23
HASTINGS       CLOUDY    31  27  85 NE9       29.80R WCI  23
ORD            CLOUDY    35  31  85 N5        29.84R WCI  31
YORK           CLOUDY    28  28 100 NE7       29.83R WCI  21
AURORA         CLOUDY    30  28  94 NE7       29.81R WCI  23
LEXINGTON      PTCLDY    32  29  89 N6        29.82R WCI  27
HOLDREGE       CLOUDY    30  29  98 NE8       29.78F WCI  22
HEBRON         CLOUDY    24  23  93 CALM      29.81S

...NEBRASKA PANHANDLE...

CITY           SKY/WX    TMP DP  RH WIND       PRES   REMARKS
CHADRON        CLOUDY    28  27  96 CALM      29.89R
ALLIANCE       CLOUDY    28  27  96 N9        29.83R WCI  19
SCOTTSBLUFF    CLOUDY    27  24  89 W9        29.84R WCI  18
SIDNEY         CLOUDY    27  25  92 NW7       29.80R WCI  19

...WESTERN AND NORTH CENTRAL NEBRASKA...

CITY           SKY/WX    TMP DP  RH WIND       PRES   REMARKS
VALENTINE      MOCLDY    30  27  88 NW6       29.88R WCI  24
AINSWORTH      CLOUDY    30  30  98 NW6       29.85R WCI  24
ONEILL         CLOUDY    31  31  98 N3        29.85S
BROKEN BOW     CLOUDY    34  30  85 N7        29.82R WCI  28
IMPERIAL       MOCLDY    30  28  92 N8        29.81R WCI  22
NORTH PLATTE   CLOUDY    33  29  85 NE9       29.82R WCI  25
MCCOOK         PTCLDY    31  28  89 N10       29.78S WCI  22

...EASTERN NEBRASKA...

CITY           SKY/WX    TMP DP  RH WIND       PRES   REMARKS
NORFOLK        CLOUDY    33  30  88 CALM      29.84R
SO SIOUX CITY  CLOUDY    29  29 100 CALM      29.87R
TEKAMAH        MOSUNNY   29  25  85 N7        29.87R WCI  22
COLUMBUS       CLOUDY    30  29  96 CALM      29.86R
ALBION         PTCLDY    36  32  85 N6        29.85R WCI  31
OMAHA EPPLEY   CLOUDY    28  25  88 CALM      29.85R
OFFUTT AFB     MOSUNNY   26  25  94 CALM      29.85R
MILLARD        CLOUDY    29  26  89 CALM      29.85S
LINCOLN        MOSUNNY   26  22  84 N5        29.85R WCI  20
NEBRASKA CITY  CLOUDY    31  30  96 CALM      29.85R
BEATRICE       FOG       33  32  98 CALM      29.82S VSB 1/2
FALLS CITY     CLOUDY    37  34  89 E3        29.86R

...NORTHERN KANSAS...

CITY           SKY/WX    TMP DP  RH WIND       PRES   REMARKS
GOODLAND       CLEAR     27  24  89 NW6       29.76R WCI  20
HILL CITY      CLOUDY    28  25  88 N8        29.76R WCI  20
NORTON         SUNNY     28  25  86 N9        29.75S WCI  20
PHILLIPSBURG   CLEAR     30  27  86 N7        29.78R WCI  23
SMITH CENTER     N/A     30  25  80 NE8       29.77S WCI  23
BELOIT         FOG       34  32  93 CALM      29.78S VSB 1/4
HAYS           CLOUDY    25  18  74 CALM      29.75R
RUSSELL        MOSUNNY   35  34  96 S8        29.75R WCI  29
CONCORDIA      CLOUDY    34  33  96 SE3       29.78F FOG
SALINA         MOSUNNY   43  42  97 S7        29.79S
TOPEKA         CLOUDY    46  43  89 SE5       29.86S



USA.gov is the U.S. government's official web portal to all federal, state and local government web resources and services.